Location: Boiro
(42.6475°N, 8.8834°W)
Time: 15:24:08
(UTC+02:00)

Explorer 7 - Pass Details

Date: 02 July 2022
Orbit: 482 x 668 km, 50.3° (Epoch: 15 August)

Event Time Altitude Azimuth Distance (km) Brightness Sun altitude
Rises 01:20:56 0° 249° (WSW) 3,001 10.6 -21.8°
Reaches altitude 10° 01:23:19 10° 252° (WSW) 2,090 9.8 -22.0°
Maximum altitude 01:28:08 64° 334° (NNW) 737 7.6 -22.3°
Drops below altitude 10° 01:32:52 10° 56° (NE) 2,053 9.9 -22.5°
Sets 01:35:12 0° 60° (ENE) 2,943 10.7 -22.6°
